TimeEDT,TemperatureF,Dew PointF,Humidity,Sea Level PressureIn,VisibilityMPH,Wind Direction,Wind SpeedMPH,Gust SpeedMPH,PrecipitationIn,Events,Conditions,WindDirDegrees,DateUTC
12:54 AM,39.0,28.0,65,30.39,10.0,Calm,Calm,-,N/A,,Clear,0,2012-10-13 04:54:00
1:54 AM,39.0,28.9,67,30.37,10.0,ESE,3.5,-,N/A,,Clear,110,2012-10-13 05:54:00
2:54 AM,39.0,28.9,67,30.35,10.0,East,4.6,-,N/A,,Clear,100,2012-10-13 06:54:00
3:54 AM,37.9,28.9,70,30.34,10.0,East,5.8,-,N/A,,Clear,100,2012-10-13 07:54:00
4:54 AM,37.9,28.9,70,30.34,10.0,East,4.6,-,N/A,,Clear,100,2012-10-13 08:54:00
5:54 AM,37.0,28.9,73,30.35,10.0,ESE,4.6,-,N/A,,Clear,110,2012-10-13 09:54:00
6:54 AM,37.0,30.0,76,30.34,10.0,East,4.6,-,N/A,,Clear,100,2012-10-13 10:54:00
7:54 AM,37.9,30.9,76,30.34,10.0,ESE,3.5,-,N/A,,Clear,110,2012-10-13 11:54:00
8:54 AM,44.1,35.1,71,30.33,10.0,SE,5.8,-,N/A,,Clear,130,2012-10-13 12:54:00
9:54 AM,52.0,39.9,63,30.30,10.0,SE,9.2,-,N/A,,Clear,140,2012-10-13 13:54:00
10:54 AM,57.9,42.1,56,30.28,10.0,South,11.5,17.3,N/A,,Clear,170,2012-10-13 14:54:00
11:54 AM,62.1,45.0,53,30.25,10.0,South,12.7,-,N/A,,Clear,180,2012-10-13 15:54:00
12:54 PM,64.9,48.0,54,30.23,10.0,SSW,13.8,-,N/A,,Clear,200,2012-10-13 16:54:00
1:54 PM,68.0,50.0,52,30.19,10.0,South,12.7,-,N/A,,Clear,190,2012-10-13 17:54:00
2:54 PM,70.0,50.0,49,30.16,10.0,SSW,12.7,-,N/A,,Clear,200,2012-10-13 18:54:00
3:54 PM,72.0,51.1,48,30.14,10.0,SSW,15.0,24.2,N/A,,Mostly Cloudy,210,2012-10-13 19:54:00
4:54 PM,71.1,52.0,51,30.12,10.0,South,13.8,-,N/A,,Overcast,190,2012-10-13 20:54:00
5:54 PM,70.0,53.1,55,30.11,10.0,South,11.5,18.4,N/A,,Mostly Cloudy,190,2012-10-13 21:54:00
6:54 PM,69.1,54.0,58,30.11,10.0,South,8.1,-,N/A,,Overcast,180,2012-10-13 22:54:00
8:54 PM,66.9,59.0,76,30.09,10.0,South,12.7,-,N/A,,Mostly Cloudy,190,2012-10-14 00:54:00
10:54 PM,66.0,57.9,75,30.04,10.0,SSW,16.1,23.0,N/A,,Clear,200,2012-10-14 02:54:00